Regional Weather Roundup
Issued by NWS

Home | Current Version | Previous Version | Graphics & Text | Print | Product List | Glossary On
Versions: 1 2 3 4 5 6 7 8 9 10 11 12 13 14 15 16 17 18 19 20 21 22 23 24 25 26 27 28 29 30 31 32 33 34 35 36 37 38 39 40 41 42 43 44 45 46 47 48 49 50
000
ASUS43 KIND 181359
RWRIN

WEATHER ROUNDUP FOR INDIANA
NATIONAL WEATHER SERVICE INDIANAPOLIS IN
900 AM EST THU DEC 18 2014

NOTE: "FAIR" INDICATES FEW OR NO CLOUDS BELOW 12,000 FEET WITH NO
SIGNIFICANT WEATHER AND/OR OBSTRUCTIONS TO VISIBILITY.

* - STATION DOES NOT REPORT WEATHER SUCH AS PRECIPITATION OR FOG.

+ - STATION NOT QUALITY CONTROLLED BY THE NATIONAL WEATHER SERVICE.
    USE DATA WITH CAUTION...ESPECIALLY DEWPOINT AND RELATIVE
    HUMIDITY OBSERVATIONS.

INZ001>003-010>013-019-020-181500-
NORTHWEST INDIANA

CITY           SKY/WX    TMP DP  RH WIND       PRES   REMARKS
GARY /AIRPORT/ CLOUDY    27  18  69 W7        30.30R WCI  19
VALPARAISO     NOT AVBL

$$

LMZ046-743>745-181500-
SOUTHERN LAKE MICHIGAN

STATION/POSITION TIME  TEMP WIND        PRES
                       AIR  DIR/SP/G
                 (UTC) (F)  (DEG/KT/KT) (MB)

$$

INZ004-005-014>016-021>024-181500-
NORTH CENTRAL INDIANA

CITY           SKY/WX    TMP DP  RH WIND       PRES   REMARKS
GOSHEN         CLOUDY    27  22  81 W7        30.26S WCI  19
PERU/GRISSOM   CLOUDY    25  21  86 CALM      30.27F
SOUTH BEND     CLOUDY    27  20  75 SW8       30.27R WCI  19

$$

INZ006>009-017-018-025>027-181500-
NORTHEAST INDIANA

CITY           SKY/WX    TMP DP  RH WIND       PRES   REMARKS
ANGOLA *+      CLOUDY    27  23  86 W6        30.23S WCI  20
FORT WAYNE     CLOUDY    27  21  78 W3        30.27S

$$

INZ028-029-035-036-043>045-051>053-181500-
WEST CENTRAL INDIANA

CITY           SKY/WX    TMP DP  RH WIND       PRES   REMARKS
GREENCASTLE +  CLOUDY    27  18  69 CALM      30.29R
LAFAYETTE      CLOUDY    24  18  77 SW3       30.30S
TERRE HAUTE    CLOUDY    26  19  74 CALM      30.32R

$$

INZ030>032-037>040-046>048-054>057-064-065-181500-
CENTRAL INDIANA

CITY           SKY/WX    TMP DP  RH WIND       PRES   REMARKS
COLUMBUS       CLOUDY    25  21  86 CALM      30.30S
INDIANAPOLIS   CLOUDY    25  18  74 E3        30.28S
-EAGLE CREEK   CLOUDY    25  18  74 CALM      30.28R
KOKOMO *+      CLOUDY    27  18  69 CALM      30.28S
MT COMFORT *+  CLOUDY    25  16  68 CALM      30.29R
SHELBYVILLE    CLOUDY    27  19  72 CALM      30.28S

$$

INZ033-034-041-042-049-050-058-059-181500-
EAST CENTRAL INDIANA

CITY           SKY/WX    TMP DP  RH WIND       PRES   REMARKS
MUNCIE         CLOUDY    26  19  74 W3        30.28R

$$

INZ060-061-067>069-081>083-085>088-181500-
SOUTHWEST INDIANA

CITY           SKY/WX    TMP DP  RH WIND       PRES   REMARKS
EVANSVILLE     CLOUDY    31  24  75 CALM      30.32R
HUNTINGBURG *+ CLOUDY    28  21  74 N7        30.29F WCI  21

$$

INZ062-063-066-070>080-084-089>092-181500-
SOUTH CENTRAL AND SOUTHEAST INDIANA

CITY           SKY/WX    TMP DP  RH WIND       PRES   REMARKS
BLOOMINGTON    CLOUDY    25  20  81 SE3       30.28S

$$



USA.gov is the U.S. government's official web portal to all federal, state and local government web resources and services.